Vertical_Velocity
-2 0 1 2 0 -3 -3 -4 -0 0 6 -3 1 -7 -3 -4 -4 -4 0 -1 2 4 4 -1 0 -7 3 1 5 1 7 -5 7 -0 3 2 -1 -3 0 -1 1 5 2 2 5
-0 -1 -1 3 1 -5 -4 -1 -3 -3 -1 -3 -3 -3 -5 -2 -2 1 -3 -11 -11 -6 5 1 4 3 2 0 3 5 -3 6 6 -1 -0 1 1 4 -1 0 2 2 1 2 1
-1 -0 1 2 4 -4 -3 -2 -6 2 -1 -7 -2 -2 -7 -4 -2 -0 4 -3 3 5 1 0 -3 6 2 3 2 1 4 -1 3 2 1 2 2 1 5 1 0 1 -0 0 2
-2 0 0 3 4 -5 -0 -2 -3 -4 1 -2 -1 -0 -4 -2 -2 -6 2 2 -2 -0 -0 4 -7 -1 -1 -1 -3 4 -0 -1 3 -1 -5 2 4 2 3 2 3 3 2 -0 -1
-3 -2 -1 2 4 -3 -5 4 -0 1 2 3 2 -5 -2 -2 -2 0 -3 -2 -1 -1 -1 0 1 -3 6 -3 -1 1 -5 -0 1 1 -1 3 -1 -0 2 1 2 3 4 3 2
-2 -0 -1 2 3 -4 -4 -0 -3 1 -3 -4 2 -1 -7 -4 -4 1 -2 0 0 -0 0 0 0 1 -0 -3 -0 1 1 -4 -6 -6 -4 -8 -9 -7 -2 -2 -0 1 -1 0 1
-3 -3 -0 2 4 4 -5 -3 -6 -3 2 -3 -0 -0 -3 -6 -4 -4 2 -1 -2 -3 -1 -1 0 4 3 3 -0 -2 0 1 -1 3 6 3 2 1 -1 -5 -6 -4 -2 -1 1
-0 -4 -2 -0 3 -1 -1 1 -1 1 0 2 4 -2 -3 -7 -4 2 -2 -2 -1 -1 0 0 -3 0 1 1 2 3 6 6 2 3 3 2 6 0 2 -1 -2 -2 -4 -5 -2
-1 -0 -1 0 1 1 -3 1 -2 -0 2 4 1 -2 -3 -6 -5 -4 -2 -0 -2 1 -0 -4 -3 -2 -3 -3 -1 -0 -0 -1 2 2 3 0 5 -0 -0 2 1 1 0 -0 -6
-0 -1 -2 -0 3 6 -1 -2 2 -4 -1 3 2 -1 -3 -4 -6 1 -2 -2 -2 -1 -0 0 -2 -3 -1 -1 -1 -1 -2 -3 -3 -3 -3 1 -3 3 4 2 2 -0 -2 -2 -1
2 -1 1 1 2 4 -2 -4 5 -4 1 1 4 2 -4 -2 -0 0 -1 -1 -0 -2 -4 -3 -5 -2 -1 -1 -0 1 -1 -5 -6 -5 -5 -5 -5 -4 -3 -1 -1 0 6 8 5
0 0 -2 2 0 -1 0 -1 -1 -0 -6 -3 1 2 1 -3 -2 -1 -0 1 -1 -2 -1 -1 -1 -1 -2 -3 -4 -5 -6 -5 -4 -2 -1 -3 -1 4 1 -2 -1 -4 -2 -0 -0
2 1 -2 1 2 4 -4 -4 -4 -2 3 -4 -2 -2 0 -1 -1 -1 -2 -0 -1 -3 -3 -2 -3 -3 -2 -1 0 1 0 0 0 -0 0 -1 -5 -7 -0 -3 -3 1 0 -2 -2
3 1 -2 -3 -1 1 -4 3 1 -3 4 -4 -3 -2 -1 -0 -2 -3 -2 -2 -2 -4 -2 -1 -2 -2 -1 -1 -2 -1 0 -1 -2 -1 -3 0 -10 1 -5 -6 -1 -6 -4 -4 -3
2 0 -1 -1 1 5 1 -3 3 3 0 -2 -0 -1 -2 -2 0 -1 -1 -3 -4 -3 -1 1 -0 -0 -0 1 1 -0 -2 -2 -1 -2 -2 4 2 -29 3 -2 1 1 -2 -2 -2
2 1 -1 -3 2 2 1 1 -2 1 -2 -1 -3 -3 -2 -1 -0 -0 0 -0 -1 -1 -3 -2 -3 -2 -2 -2 -2 -2 -1 -2 -1 -1 -0 4 5 -26 -2 -1 -5 -1 -2 -2 -5
1 3 1 -1 4 1 1 1 -4 2 1 -1 0 1 -2 -3 -1 -3 -5 -2 -0 -1 -2 -2 -2 -2 -3 -2 -2 -2 -2 -5 -4 -3 1 3 2 -10 -2 -4 -2 -4 -5 -2 -5
3 3 3 -5 2 2 -1 -1 2 3 2 1 1 -1 -2 -3 -2 -1 -1 -1 -2 -0 -1 -1 -3 -2 -1 -1 -1 -1 -0 -0 -3 -3 -1 6 -3 -9 -1 -2 -1 -2 -3 -2 -4
2 1 -1 -0 -1 -1 -1 -3 5 4 -1 1 2 1 0 -2 -1 -2 -1 -2 -2 -1 -2 -2 -0 -1 -1 -1 1 1 -1 -2 -3 2 1 1 -12 -7 2 -3 1 -2 -2 -3 -4
0 3 -1 -1 -0 -3 -2 4 -1 2 -7 0 0 -0 0 -2 -2 -2 -2 1 1 -2 -2 -2 -1 0 0 -1 -2 -2 -2 -2 -0 -6 -4 3 -2 -7 -4 -0 -1 -2 -2 -2 -4
-1 -0 -1 -5 -2 -3 -1 2 -1 1 -5 -1 2 -0 0 0 -1 -3 -3 -2 1 3 1 -0 -0 0 0 1 -0 -3 1 -2 -0 2 -3 -4 -1 3 1 -1 -3 -3 -1 -0 -3
3 -1 -0 -2 -2 1 -1 7 -0 3 -3 0 -1 1 1 0 -1 -1 -2 -3 -2 -1 0 -1 -1 -0 -0 -1 -1 -0 -2 -0 -1 2 -0 -5 6 1 -0 -2 1 -1 -1 -1 -2
1 0 -4 -3 1 1 5 3 -2 4 -4 0 1 1 1 0 -1 -0 -2 -1 -1 -1 -2 0 0 0 2 -1 -2 -2 -0 -0 -1 -4 1 -2 -11 -4 -2 -0 -4 -1 -3 -0 0
-3 -6 -7 -6 -3 1 1 -1 -4 1 -1 -1 1 -0 -1 0 -1 -1 -1 0 1 -0 -0 -1 0 1 -1 -4 -3 -2 0 0 -1 -2 1 -3 13 -16 -10 -5 -2 -1 -0 -2 -2
-0 0 5 3 -0 4 2 -1 -3 0 4 -2 2 1 -3 -0 0 -1 -1 0 -1 -1 -2 -1 0 -1 -1 -1 -3 -8 4 0 -4 -6 -1 -4 -2 -4 -1 -5 -6 -4 -5 -5 -4
2 1 -0 1 1 -2 -2 0 -0 2 3 0 2 -0 0 -2 -0 2 -0 -1 -1 -3 -1 -1 -1 -0 -4 -0 -3 3 -7 -6 1 -2 4 1 3 -2 0 -2 -3 -4 -5 -3 -2
0 -2 -2 -1 0 1 2 1 1 3 2 3 -2 4 0 1 -1 -2 0 -1 -2 -2 -2 -1 -1 -0 1 -1 -3 2 -3 -4 -4 -3 -3 -3 -6 -3 -2 -4 -2 -2 -2 -0 -0
Height
5839 5839 5839 5838 5837 5837 5835 5834 5833 5830 5825 5822 5824 5824 5824 5824 5825 5825 5825 5826 5826 5826 5826 5826 5828 5835 5839 5843 5847 5851 5854 5852 5858 5860 5863 5865 5867 5870 5872 5874 5877 5879 5881 5883 5885
5837 5837 5837 5836 5836 5836 5835 5834 5832 5831 5827 5824 5825 5826 5827 5827 5827 5826 5827 5827 5826 5826 5826 5826 5828 5833 5838 5842 5846 5849 5849 5854 5858 5860 5862 5864 5866 5869 5871 5873 5875 5876 5878 5879 5882
5833 5834 5835 5836 5835 5835 5835 5834 5832 5831 5828 5825 5826 5828 5829 5829 5830 5829 5829 5829 5830 5829 5829 5829 5829 5832 5838 5841 5844 5847 5850 5853 5855 5858 5860 5862 5864 5866 5869 5870 5871 5874 5875 5876 5877
5830 5832 5834 5833 5834 5834 5835 5835 5834 5832 5830 5826 5827 5829 5829 5829 5831 5832 5831 5831 5833 5833 5832 5832 5832 5833 5837 5840 5843 5846 5849 5850 5853 5855 5858 5860 5862 5864 5866 5868 5868 5870 5872 5872 5872
5828 5828 5831 5831 5832 5833 5835 5835 5834 5832 5831 5827 5828 5829 5830 5829 5830 5833 5833 5833 5833 5833 5833 5834 5835 5838 5841 5842 5844 5845 5847 5849 5851 5854 5856 5857 5859 5861 5863 5864 5865 5866 5867 5868 5868
5826 5827 5829 5828 5830 5831 5833 5834 5834 5834 5833 5828 5829 5831 5831 5831 5830 5832 5832 5834 5835 5835 5834 5835 5837 5839 5842 5844 5845 5847 5849 5851 5851 5853 5855 5856 5858 5859 5859 5860 5861 5862 5863 5864 5864
5822 5824 5825 5826 5827 5829 5832 5833 5834 5834 5834 5829 5829 5832 5831 5833 5832 5833 5835 5836 5836 5836 5835 5836 5838 5840 5842 5844 5846 5846 5848 5850 5851 5851 5853 5853 5855 5856 5856 5856 5857 5857 5856 5856 5857
5819 5821 5823 5824 5826 5827 5830 5833 5834 5833 5833 5830 5831 5831 5831 5833 5834 5835 5835 5837 5837 5838 5839 5840 5841 5842 5843 5845 5847 5848 5849 5851 5852 5852 5851 5851 5852 5852 5852 5852 5852 5851 5851 5850 5850
5815 5819 5821 5822 5824 5825 5827 5830 5832 5832 5832 5831 5831 5831 5831 5833 5834 5836 5838 5838 5839 5840 5842 5842 5844 5845 5846 5847 5848 5849 5850 5850 5851 5851 5850 5850 5850 5849 5849 5848 5848 5847 5846 5845 5843
5811 5815 5819 5821 5823 5824 5827 5829 5831 5831 5832 5831 5830 5835 5832 5833 5834 5836 5839 5840 5840 5842 5843 5844 5844 5845 5846 5846 5848 5848 5849 5849 5848 5849 5848 5847 5846 5845 5844 5843 5842 5841 5840 5839 5837
5807 5812 5816 5818 5820 5821 5824 5827 5831 5833 5832 5833 5830 5833 5834 5834 5835 5836 5838 5840 5840 5841 5842 5843 5844 5845 5845 5845 5845 5845 5845 5846 5845 5844 5843 5842 5841 5839 5838 5836 5834 5834 5833 5832 5830
5800 5807 5811 5814 5817 5818 5820 5824 5827 5831 5831 5832 5831 5832 5835 5835 5836 5837 5839 5840 5841 5841 5842 5843 5843 5844 5844 5844 5843 5843 5843 5842 5842 5841 5840 5837 5835 5834 5832 5831 5828 5826 5824 5822 5820
5796 5802 5808 5811 5814 5816 5817 5821 5824 5826 5829 5831 5831 5832 5833 5836 5836 5837 5838 5838 5839 5840 5841 5841 5841 5840 5840 5840 5840 5841 5840 5839 5839 5837 5835 5832 5828 5828 5826 5823 5821 5818 5815 5812 5810
5791 5798 5802 5808 5812 5813 5814 5817 5822 5825 5827 5829 5830 5832 5832 5834 5835 5836 5836 5838 5837 5838 5838 5839 5839 5838 5838 5838 5838 5837 5835 5834 5832 5831 5829 5828 5824 5819 5820 5816 5814 5810 5807 5804 5801
5786 5793 5798 5804 5808 5810 5812 5814 5817 5822 5826 5827 5828 5829 5829 5832 5832 5834 5834 5834 5835 5835 5836 5836 5835 5834 5833 5833 5831 5830 5829 5827 5826 5825 5823 5822 5821 5805 5812 5806 5803 5801 5796 5792 5788
5781 5788 5794 5799 5803 5806 5808 5811 5814 5819 5821 5823 5825 5827 5828 5828 5828 5830 5831 5832 5832 5832 5832 5832 5831 5830 5828 5827 5825 5824 5823 5821 5819 5818 5816 5815 5813 5802 5803 5799 5795 5790 5787 5783 5779
5775 5782 5789 5795 5801 5801 5804 5807 5812 5814 5818 5819 5821 5823 5826 5826 5827 5828 5828 5828 5829 5829 5829 5828 5827 5826 5825 5823 5821 5819 5817 5815 5814 5812 5810 5806 5803 5796 5794 5790 5786 5782 5778 5773 5770
5769 5777 5784 5789 5795 5797 5800 5804 5808 5811 5813 5814 5817 5819 5822 5823 5824 5824 5825 5826 5825 5825 5824 5824 5823 5821 5819 5818 5816 5813 5812 5810 5807 5804 5801 5794 5794 5789 5786 5782 5778 5774 5771 5766 5762
5764 5771 5778 5784 5791 5793 5797 5801 5804 5808 5809 5810 5812 5815 5818 5819 5821 5821 5821 5822 5822 5821 5820 5818 5818 5816 5814 5812 5811 5808 5806 5803 5800 5797 5793 5788 5784 5779 5778 5772 5768 5764 5760 5756 5752
5758 5766 5773 5779 5786 5788 5793 5798 5800 5804 5806 5807 5809 5812 5813 5815 5817 5817 5817 5819 5818 5816 5814 5813 5811 5810 5808 5807 5805 5802 5799 5795 5792 5788 5784 5781 5775 5770 5768 5763 5759 5756 5753 5749 5744
5753 5760 5767 5773 5780 5784 5790 5794 5796 5800 5802 5803 5805 5807 5808 5810 5811 5812 5813 5813 5811 5810 5808 5806 5805 5804 5801 5800 5797 5795 5791 5788 5785 5781 5776 5773 5770 5764 5760 5756 5752 5748 5744 5741 5736
5748 5755 5761 5768 5776 5781 5785 5789 5793 5795 5797 5798 5800 5801 5803 5804 5805 5807 5807 5806 5805 5804 5802 5800 5798 5796 5795 5793 5790 5787 5783 5780 5776 5774 5770 5767 5765 5759 5755 5750 5745 5741 5738 5734 5729
5741 5749 5754 5762 5771 5775 5780 5783 5787 5790 5792 5793 5794 5796 5797 5798 5799 5800 5800 5800 5799 5797 5795 5794 5791 5788 5787 5787 5783 5779 5775 5771 5769 5766 5764 5761 5755 5750 5747 5743 5739 5735 5731 5726 5722
5735 5741 5748 5757 5765 5768 5771 5777 5781 5784 5787 5787 5789 5790 5790 5791 5792 5793 5793 5793 5792 5791 5789 5787 5784 5782 5780 5778 5776 5772 5768 5765 5763 5760 5758 5753 5751 5743 5740 5735 5731 5728 5724 5720 5715
5728 5736 5746 5754 5759 5762 5765 5771 5774 5777 5780 5781 5782 5784 5784 5785 5786 5786 5786 5786 5785 5784 5782 5780 5778 5775 5773 5771 5768 5764 5762 5759 5756 5752 5751 5747 5743 5737 5735 5729 5724 5721 5717 5713 5708
5724 5732 5739 5746 5749 5754 5759 5764 5768 5770 5773 5775 5776 5776 5778 5779 5780 5779 5780 5779 5779 5777 5775 5772 5771 5768 5766 5763 5761 5758 5754 5751 5749 5746 5743 5740 5738 5731 5728 5723 5718 5715 5711 5707 5702
5718 5724 5731 5736 5742 5748 5755 5757 5760 5763 5766 5767 5767 5769 5771 5773 5773 5772 5772 5772 5772 5770 5767 5765 5763 5760 5759 5757 5754 5752 5749 5745 5742 5739 5736 5733 5728 5725 5720 5716 5711 5706 5702 5700 5695